Regional Weather Roundup
Issued by NWS

Home | Current Version | Previous Version | Text Only | Print | Product List | Glossary Off
Versions: 1 2 3 4 5 6 7 8 9 10 11 12 13 14 15 16 17 18 19 20 21 22 23 24 25 26 27 28 29 30 31 32 33 34 35 36 37 38 39 40 41 42 43 44 45 46 47 48 49 50

000
ASUS43 KOAX 080810
RWRNE

WEATHER ROUNDUP FOR NEBRASKA
NATIONAL WEATHER SERVICE OMAHA NE
200 AM CST MON FEB 08 2016

NOTES: SATELLITE DATA IS BEING USED TO AUGMENT CLOUD COVER ABOVE
       12000 FEET.
       "FAIR" INDICATES FEW OR NO CLOUDS BELOW 12,000 FEET WITH NO
       SIGNIFICANT WEATHER AND/OR OBSTRUCTIONS TO VISIBILITY.

  * THESE STATIONS DO NOT REPORT WEATHER SUCH AS RAIN...SNOW OR FOG.

NEZ001>004-019>022-054>056-080900-
NEBRASKA PANHANDLE

CITY           SKY/WX    TMP DP  RH WIND       PRES   REMARKS
SCOTTSBLUFF    CLOUDY    24  12  60 NW15      30.37F WCI  11
ALLIANCE       CLEAR     18   9  68 W20       30.29S WCI   2
CHADRON        CLEAR     25  12  58 W18       30.34S WCI  11
KIMBALL        CLOUDY    20  11  68 W10       30.35S WCI   9
SIDNEY         CLOUDY    23  11  60 NW20      30.32F WCI   8
$$

NEZ057>060-069>072-079>082-080900-
SOUTHWEST NEBRASKA

CITY           SKY/WX    TMP DP  RH WIND       PRES   REMARKS
NORTH PLATTE   CLEAR     28  12  51 NW24G31   30.22F WCI  14
IMPERIAL       CLEAR     27  13  55 NW21G32   30.28F WCI  13
LEXINGTON      CLEAR     29  15  56 NW20G25   30.19F WCI  16
MCCOOK         CLEAR     25  14  63 NW18      30.25F WCI  11
OGALLALA       CLEAR     25  13  60 NW21      30.28S WCI  10
$$

NEZ005>010-023>029-035>040-094-080900-
NORTH CENTRAL NEBRASKA

CITY           SKY/WX    TMP DP  RH WIND       PRES   REMARKS
VALENTINE      CLEAR     29  16  58 NW26G35   30.19F WCI  14
AINSWORTH      CLEAR     30  17  57 NW30G43   30.15S WCI  15
BROKEN BOW     CLEAR     30  16  56 NW28G39   30.15F WCI  15
O`NEILL        CLOUDY    32  18  56 NW36G41   30.08S WCI  16
ORD            PTCLDY    31  17  56 NW36G47   30.10S WCI  15
THEDFORD       CLEAR     30  16  55 NW24G37   30.20F WCI  16
$$

NEZ041-046>049-061>064-073>077-083>087-080900-
SOUTH CENTRAL NEBRASKA

CITY           SKY/WX    TMP DP  RH WIND       PRES   REMARKS
GRAND ISLAND   CLOUDY    32  19  58 NW28G36   30.11F WCI  18
AURORA         CLOUDY    31  19  62 NW20      30.08F WCI  19
HASTINGS       CLOUDY    33  18  53 NW26G38   30.11F WCI  20
HEBRON         CLEAR     31  20  62 NW15G24   30.12F WCI  20
HOLDREGE       CLEAR     28  16  60 NW20G26   30.17S WCI  15
YORK           CLOUDY    30  19  64 NW23G31   30.06F WCI  17
$$

NEZ011>018-030>034-042>045-080900-
NORTHEAST NEBRASKA

CITY           SKY/WX    TMP DP  RH WIND       PRES   REMARKS
NORFOLK        FLURRIES  31  24  75 N28G36    30.00R WCI  17
ALBION         PTCLDY    31  18  57 NW36G41   30.02F WCI  16
BLAIR          CLOUDY    30  21  69 NW25G45   29.96S WCI  16
COLUMBUS *     CLOUDY    32  16  51 NW22G31   30.03F WCI  19
FREMONT        MOCLDY    31  21  67 NW30G45   30.01S WCI  16
TEKAMAH        CLOUDY    29  21  72 NW29G41   29.98F WCI  14
WAYNE          PTCLDY    27  20  73 N23G31    30.02R WCI  13
$$

NEZ050>053-065>068-078-088>093-080900-
SOUTHEAST NEBRASKA

CITY           SKY/WX    TMP DP  RH WIND       PRES   REMARKS
LINCOLN        CLOUDY    34  19  54 NW20G28   30.04F WCI  23
OMAHA EPPLEY   CLOUDY    31  22  69 NW31G46   29.97F WCI  16
BEATRICE       CLOUDY    33  20  60 NW18G25   30.05F WCI  21
FALLS CITY     CLOUDY    34  23  64 NW18G31   30.01F WCI  23
NEBRASKA CITY  CLOUDY    32  23  70 NW14G21   29.99F WCI  22
PLATTSMOUTH    CLOUDY    31  22  67 NW33G41   29.97F WCI  16
$$

NEZ044-045-051>053-067-080900-
OMAHA AREA

CITY           SKY/WX    TMP DP  RH WIND       PRES   REMARKS
OMAHA EPPLEY   CLOUDY    31  22  69 NW31G46   29.97F WCI  16
BLAIR          CLOUDY    30  21  69 NW25G45   29.96S WCI  16
FREMONT        MOCLDY    31  21  67 NW30G45   30.01S WCI  16
MILLARD        CLOUDY    32  22  65 NW22G32   29.99F WCI  19
OFFUTT AFB     MOCLDY    32  19  59 NW31G46   29.97F WCI  17
PLATTSMOUTH    CLOUDY    31  22  67 NW33G41   29.97F WCI  16
WAHOO          FLURRIES  33  24  69 NW24G35   30.00F WCI  20
$$



USA.gov is the U.S. government's official web portal to all federal, state and local government web resources and services.